• In Germany
  • List of Countries
  • For 7 days
  • Water Temperature
  • Satellite Maps
  • Weather Map
  • Weather Widgets
  • user-avatar
    Login

    Hourly Weather Mauritius

    Today, 24 August, Thursday

    Time Temperature Precipitation Wind Pressure Humidity
    00:00 +21°C° 0 mm 5 mps 726 mmHg 82%
    01:00 +21°C° 0 mm 5 mps 726 mmHg 83%
    02:00 +21°C° 0 mm 5 mps 726 mmHg 83%
    03:00 +21°C° 0 mm 5 mps 725 mmHg 84%
    04:00 +21°C° 0 mm 5 mps 725 mmHg 85%
    05:00 +21°C° 0 mm 5 mps 725 mmHg 85%
    06:00 +21°C° 0 mm 5 mps 725 mmHg 85%
    07:00 +21°C° 0 mm 5 mps 726 mmHg 85%
    08:00 +22°C° 0 mm 5 mps 726 mmHg 81%
    09:00 +23°C° 0 mm 6 mps 726 mmHg 78%
    10:00 +23°C° 0 mm 6 mps 726 mmHg 74%
    11:00 +24°C° 0 mm 6 mps 726 mmHg 73%
    12:00 +25°C° 0 mm 5 mps 726 mmHg 72%
    13:00 +25°C° 0 mm 5 mps 725 mmHg 71%
    14:00 +25°C° 0.2 mm 5 mps 725 mmHg 72%
    15:00 +25°C° 0.2 mm 5 mps 725 mmHg 73%
    16:00 +25°C° 0.2 mm 5 mps 725 mmHg 73%
    17:00 +23°C° 0.2 mm 5 mps 725 mmHg 76%
    18:00 +23°C° 0.2 mm 5 mps 725 mmHg 79%
    19:00 +22°C° 0.2 mm 5 mps 726 mmHg 81%
    20:00 +22°C° 0.3 mm 6 mps 726 mmHg 82%
    21:00 +22°C° 0.3 mm 7 mps 726 mmHg 83%
    22:00 +22°C° 0.3 mm 7 mps 727 mmHg 83%
    23:00 +22°C° 0.2 mm 8 mps 727 mmHg 83%

    Tomorrow, 25 August, Friday

    Time Temperature Precipitation Wind Pressure Humidity
    00:00 +22°C° 0.2 mm 8 mps 727 mmHg 83%
    01:00 +22°C° 0.2 mm 8 mps 727 mmHg 82%
    02:00 +22°C° 0 mm 8 mps 726 mmHg 82%
    03:00 +22°C° 0 mm 8 mps 726 mmHg 83%
    04:00 +21°C° 0 mm 7 mps 726 mmHg 83%
    05:00 +21°C° 0 mm 7 mps 726 mmHg 83%
    06:00 +21°C° 0 mm 7 mps 726 mmHg 83%
    07:00 +21°C° 0 mm 7 mps 727 mmHg 82%
    08:00 +22°C° 0 mm 7 mps 727 mmHg 80%
    09:00 +23°C° 0 mm 7 mps 727 mmHg 77%
    10:00 +23°C° 0 mm 7 mps 728 mmHg 74%
    11:00 +24°C° 0 mm 7 mps 727 mmHg 72%
    12:00 +24°C° 0 mm 7 mps 727 mmHg 71%
    13:00 +24°C° 0 mm 7 mps 726 mmHg 69%
    14:00 +24°C° 0 mm 7 mps 726 mmHg 70%
    15:00 +24°C° 0 mm 7 mps 726 mmHg 71%
    16:00 +23°C° 0 mm 7 mps 726 mmHg 72%
    17:00 +23°C° 0 mm 7 mps 726 mmHg 74%
    18:00 +22°C° 0 mm 7 mps 726 mmHg 77%
    19:00 +22°C° 0 mm 7 mps 726 mmHg 79%
    20:00 +22°C° 0 mm 7 mps 727 mmHg 79%
    21:00 +22°C° 0 mm 7 mps 727 mmHg 79%
    22:00 +22°C° 0 mm 7 mps 727 mmHg 79%
    23:00 +22°C° 0 mm 7 mps 727 mmHg 79%

    Day after tomorrow, 26 August, Saturday

    Time Temperature Precipitation Wind Pressure Humidity
    00:00 +21°C° 0 mm 7 mps 727 mmHg 79%
    01:00 +21°C° 0 mm 7 mps 727 mmHg 79%
    02:00 +21°C° 0 mm 7 mps 726 mmHg 79%
    03:00 +21°C° 0 mm 6 mps 726 mmHg 79%
    04:00 +21°C° 0 mm 6 mps 726 mmHg 79%
    05:00 +21°C° 0 mm 6 mps 726 mmHg 79%
    06:00 +21°C° 0 mm 6 mps 726 mmHg 80%
    07:00 +21°C° 0 mm 7 mps 727 mmHg 80%
    08:00 +22°C° 0 mm 7 mps 727 mmHg 77%
    09:00 +22°C° 0 mm 7 mps 727 mmHg 75%
    10:00 +23°C° 0 mm 7 mps 728 mmHg 72%
    11:00 +23°C° 0 mm 7 mps 727 mmHg 69%
    12:00 +23°C° 0 mm 7 mps 727 mmHg 67%
    13:00 +23°C° 0 mm 7 mps 726 mmHg 64%
    14:00 +23°C° 0 mm 7 mps 726 mmHg 65%
    15:00 +23°C° 0 mm 7 mps 725 mmHg 67%
    16:00 +23°C° 0 mm 7 mps 725 mmHg 68%
    17:00 +22°C° 0 mm 7 mps 725 mmHg 70%
    18:00 +22°C° 0 mm 7 mps 725 mmHg 73%
    19:00 +21°C° 0 mm 7 mps 726 mmHg 75%
    20:00 +21°C° 0 mm 6 mps 726 mmHg 75%
    21:00 +21°C° 0 mm 6 mps 726 mmHg 76%
    22:00 +21°C° 0 mm 6 mps 726 mmHg 76%
    23:00 +21°C° 0.1 mm 5 mps 726 mmHg 76%

    27 August, Sunday

    Time Temperature Precipitation Wind Pressure Humidity
    00:00 +21°C° 0.1 mm 5 mps 726 mmHg 77%
    01:00 +21°C° 0.1 mm 5 mps 726 mmHg 77%
    02:00 +21°C° 0.1 mm 5 mps 725 mmHg 77%
    03:00 +21°C° 0.1 mm 4 mps 725 mmHg 77%
    04:00 +21°C° 0.1 mm 4 mps 725 mmHg 76%
    05:00 +21°C° 0 mm 4 mps 725 mmHg 76%
    06:00 +21°C° 0 mm 4 mps 725 mmHg 76%
    07:00 +21°C° 0 mm 4 mps 726 mmHg 76%
    08:00 +21°C° 0 mm 4 mps 726 mmHg 75%
    09:00 +22°C° 0 mm 4 mps 726 mmHg 73%
    10:00 +23°C° 0 mm 4 mps 726 mmHg 72%
    11:00 +23°C° 0.2 mm 5 mps 726 mmHg 72%
    12:00 +23°C° 0.2 mm 5 mps 725 mmHg 72%
    13:00 +23°C° 0.2 mm 5 mps 725 mmHg 71%
    14:00 +23°C° 0.7 mm 6 mps 725 mmHg 74%
    15:00 +22°C° 0.7 mm 6 mps 724 mmHg 78%
    16:00 +22°C° 0.7 mm 7 mps 724 mmHg 81%
    17:00 +22°C° 0.4 mm 7 mps 724 mmHg 81%
    18:00 +22°C° 0.4 mm 7 mps 725 mmHg 81%
    19:00 +22°C° 0.4 mm 7 mps 725 mmHg 81%
    20:00 +22°C° 0.3 mm 7 mps 725 mmHg 81%
    21:00 +22°C° 0.3 mm 7 mps 725 mmHg 81%
    22:00 +22°C° 0.3 mm 8 mps 725 mmHg 81%
    23:00 +22°C° 0.3 mm 7 mps 725 mmHg 81%

    28 August, Monday

    Time Temperature Precipitation Wind Pressure Humidity
    00:00 +22°C° 0.3 mm 7 mps 725 mmHg 81%
    01:00 +22°C° 0.3 mm 7 mps 725 mmHg 81%
    02:00 +22°C° 0.3 mm 7 mps 725 mmHg 81%
    03:00 +22°C° 0.3 mm 7 mps 724 mmHg 80%
    04:00 +22°C° 0.3 mm 7 mps 724 mmHg 80%
    05:00 +22°C° 0.1 mm 7 mps 724 mmHg 80%
    06:00 +22°C° 0.1 mm 7 mps 725 mmHg 80%
    07:00 +21°C° 0.1 mm 7 mps 725 mmHg 80%
    08:00 +22°C° 0 mm 7 mps 725 mmHg 80%
    09:00 +22°C° 0 mm 6 mps 725 mmHg 79%
    10:00 +22°C° 0 mm 6 mps 725 mmHg 78%
    11:00 +22°C° 0 mm 6 mps 725 mmHg 77%
    12:00 +22°C° 0 mm 6 mps 724 mmHg 75%
    13:00 +22°C° 0 mm 5 mps 724 mmHg 74%
    14:00 +23°C° 0 mm 5 mps 724 mmHg 73%
    15:00 +23°C° 0 mm 5 mps 724 mmHg 71%
    16:00 +23°C° 0 mm 4 mps 723 mmHg 70%
    17:00 +22°C° 0 mm 5 mps 724 mmHg 73%
    18:00 +22°C° 0 mm 5 mps 724 mmHg 76%
    19:00 +21°C° 0 mm 5 mps 724 mmHg 78%
    20:00 +21°C° 0 mm 5 mps 724 mmHg 78%
    21:00 +21°C° 0 mm 5 mps 724 mmHg 79%
    22:00 +21°C° 0 mm 5 mps 724 mmHg 79%
    23:00 +21°C° 0 mm 4 mps 724 mmHg 79%

    29 August, Tuesday

    Time Temperature Precipitation Wind Pressure Humidity
    00:00 +21°C° 0 mm 4 mps 724 mmHg 80%
    01:00 +21°C° 0 mm 4 mps 724 mmHg 80%
    02:00 +21°C° 0 mm 4 mps 723 mmHg 81%
    03:00 +21°C° 0 mm 3 mps 723 mmHg 82%
    04:00 +21°C° 0 mm 3 mps 723 mmHg 82%
    05:00 +21°C° 0.1 mm 3 mps 723 mmHg 83%
    06:00 +21°C° 0.1 mm 3 mps 724 mmHg 83%
    07:00 +21°C° 0.1 mm 3 mps 724 mmHg 83%
    08:00 +21°C° 0.4 mm 4 mps 724 mmHg 81%
    09:00 +22°C° 0.4 mm 4 mps 724 mmHg 79%
    10:00 +22°C° 0.4 mm 4 mps 724 mmHg 77%
    11:00 +22°C° 0.5 mm 4 mps 724 mmHg 77%
    12:00 +22°C° 0.5 mm 4 mps 723 mmHg 76%
    13:00 +22°C° 0.5 mm 4 mps 723 mmHg 76%
    14:00 +22°C° 0.5 mm 4 mps 723 mmHg 77%
    15:00 +22°C° 0.5 mm 3 mps 722 mmHg 78%
    16:00 +22°C° 0.5 mm 3 mps 722 mmHg 78%
    17:00 +21°C° 0.6 mm 2 mps 723 mmHg 79%
    18:00 +21°C° 0.6 mm 2 mps 723 mmHg 79%
    19:00 +22°C° 0.6 mm 1 mps 723 mmHg 80%
    20:00 +22°C° 0.2 mm 1 mps 723 mmHg 80%
    21:00 +22°C° 0.2 mm 1 mps 723 mmHg 81%
    22:00 +22°C° 0.2 mm 1 mps 724 mmHg 82%
    23:00 +22°C° 0.3 mm 1 mps 723 mmHg 82%
    Show more